[[{"header":{"parameterUnit":"m.s-1","parameterCategory":1,"la1":30.2991,"la2":30.254,"lo1":-89.0895,"lo2":-89.0444,"dy":0.0017,"dx":0.0017,"nx":28,"ny":28,"refTime":"2024-02-27T09:00:00:Z","depth":0,"parameterNumber":2,"parameterNumberName":"U-component_of_WINDS"},"data":[0,0,0,0,0,0,0,0,0,0,0,0,0,0,0,0,0,0,0,0,0,0,0,0,0,0,0,0,0,0,0,0,0,0,0,0,0,0,0,0,0,0,0,0,0,0,0,0,0,0,0,0,0,0,0,0,0,0,0.7474,0.7475,0,0.7515,0.7516,0.7516,0.7515,0.7515,0.7514,0.7513,0.7559,0.756,0.7562,0,0,0,0,0,0,0,0,0,0,0,0,0,0.7398,0.7399,0.7474,0.7475,0.7475,0.7515,0.7516,0.7516,0.7515,0.7515,0.7514,0.7513,0.7558,0.756,0.7562,0,0,0,0,0,0,0,0,0,0,0,0,0,0.7434,0.74,0.7474,0.7479,0.748,0.7515,0.7516,0.7517,0.7515,0.7515,0.7514,0.7513,0.7557,0.756,0.7563,0.7596,0,0,0.7571,0.7572,0,0,0,0,0,0,0,0,0.7432,0.7437,0.7478,0.7479,0.748,0.7509,0.7506,0.7543,0.7516,0.7502,0.7513,0.7512,0.7543,0.7547,0.7557,0.7598,0.76,0.7571,0.7572,0.7574,0.7574,0,0,0,0,0,0,0,0.743,0.7436,0.7491,0.7479,0.748,0.7481,0.7485,0.7513,0.7527,0.7503,0.7503,0.7508,0.7544,0.7554,0.7558,0.7601,0.7571,0.7573,0.7575,0.7576,0.7673,0.7674,0,0,0,0,0,0,0.7426,0.7433,0.7489,0.7492,0.7454,0.7483,0.7488,0.7501,0.7527,0.753,0.7509,0.7508,0.755,0.7555,0.7559,0.7601,0.7573,0.7576,0.7577,0.7672,0.7674,0.7675,0,0,0,0,0,0,0.7424,0.7431,0.7488,0.7463,0.747,0.7485,0.75,0.7502,0.7513,0.7531,0.7534,0.7517,0.755,0.7556,0.7587,0.7603,0.7577,0.7579,0.7671,0.7673,0.7674,0.7685,0,0,0,0,0,0,0.7422,0.743,0.7442,0.7463,0.7471,0.7514,0.7501,0.7504,0.7517,0.7516,0.7539,0.7542,0.7549,0.7583,0.759,0.7606,0.7582,0.767,0.7672,0.7674,0.7683,0.7687,0.769,0,0,0,0,0,0.7419,0.7444,0.7443,0.7449,0.7486,0.7515,0.7519,0.7526,0.7518,0.7531,0.7543,0.7541,0.76,0.7586,0.7594,0.7611,0.7669,0.7671,0.7674,0.7682,0.7686,0.769,0,0,0,0,0,0,0.7425,0.7447,0.7446,0.7477,0.7494,0.7514,0.7531,0.753,0.7551,0.7549,0.7558,0.7563,0.7595,0.7606,0.7591,0.7646,0.7633,0.7637,0.7637,0.7641,0.7645,0.7642,0.7584,0,0,0,0,0,0.743,0.745,0.7468,0.7495,0.7503,0.7515,0.7528,0.7532,0.755,0.7557,0.7571,0.759,0.7613,0.7627,0.7649,0.7684,0.7691,0.77,0.7703,0.7706,0.771,0.7731,0.7736,0.7682,0.7682,0.7682,0,0,0.7441,0.7455,0.7467,0.7496,0.751,0.7532,0.7521,0.7545,0.7562,0.7561,0.7592,0.7603,0.7624,0.7658,0.7674,0.7668,0.7726,0.7709,0.7711,0.7713,0.7734,0.7739,0.7743,0.7684,0.7684,0.7683,0,0,0.7472,0.7484,0.7508,0.7521,0.7542,0.755,0.7556,0.7576,0.7583,0.7614,0.7614,0.7635,0.7673,0.7689,0.7702,0.7739,0.774,0.7746,0.7763,0.7784,0.7788,0.7792,0.7807,0.7812,0.775,0.775,0.775,0,0.7483,0.7515,0.7521,0.7544,0.7558,0.7557,0.7583,0.7596,0.7623,0.7633,0.7626,0.7675,0.7689,0.7727,0.7736,0.7746,0.7755,0.7744,0.7787,0.7791,0.7795,0.7809,0.7815,0.775,0.775,0.775,0.775,0,0.7529,0.7551,0.7568,0.7593,0.7609,0.7633,0.7644,0.7659,0.7661,0.767,0.7703,0.772,0.7745,0.7755,0.7757,0.7794,0.779,0.7785,0.7773,0.78,0.7814,0.782,0.7752,0.7751,0.7751,0.7751,0,0,0.7565,0.7593,0.76,0.7612,0.7634,0.7652,0.7677,0.7702,0.7715,0.7734,0.7756,0.7789,0.7784,0.7799,0.7804,0.7822,0.7853,0.7815,0.7815,0.7823,0.7896,0.7901,0.7907,0.7852,0.7853,0.7854,0.7895,0,0.76,0.7644,0.765,0.7689,0.771,0.7711,0.7733,0.775,0.7759,0.778,0.779,0.7814,0.7806,0.7815,0.7832,0.7845,0.7868,0.7842,0.7875,0.7876,0.7871,0.7914,0.7919,0.7957,0.79,0.7901,0.7901,0,0.7646,0.7666,0.7707,0.7727,0.7737,0.7756,0.778,0.7799,0.7819,0.7825,0.7841,0.7844,0.7871,0.7857,0.7896,0.7879,0.7892,0.7901,0.7902,0.7907,0.7891,0.7922,0.7968,0.7975,0.791,0.7909,0.7908,0,0.7671,0.7707,0.7737,0.7747,0.7772,0.7786,0.7797,0.7815,0.783,0.7851,0.7861,0.7885,0.7898,0.7917,0.7927,0.7916,0.7966,0.7952,0.7973,0.7973,0.7985,0.7985,0.8037,0.7991,0.7991,0.7991,0.7991,0,0.771,0.7736,0.7749,0.7767,0.7797,0.7804,0.7833,0.7843,0.786,0.7882,0.7883,0.7903,0.7914,0.7937,0.7944,0.7976,0.7982,0.7989,0.7991,0.799,0.7989,0.8,0.7998,0.7992,0.7992,0.7992,0.7991,0,0.7744,0.7753,0.7786,0.7806,0.7812,0.7833,0.785,0.7869,0.7878,0.7906,0.7913,0.7927,0.7954,0.7965,0.7998,0.8003,0.804,0.804,0.8034,0.8035,0.8056,0.8054,0.8118,0.8128,0.8074,0.8074,0.8075,0,0.7769,0.7789,0.7811,0.7825,0.7836,0.7859,0.7874,0.7882,0.7898,0.7922,0.7938,0.7965,0.7986,0.8029,0.8043,0.8069,0.807,0.809,0.8074,0.8072,0.8072,0.8072,0.8075,0.8094,0.8095,0.8095,0.8095,0,0.7813,0.7817,0.7838,0.7861,0.7879,0.7898,0.7916,0.7928,0.7939,0.7957,0.7984,0.8,0.8034,0.806,0.8087,0.8099,0.81,0.81,0.8107,0.8107,0.8103,0.8107,0.8044,0.8099,0.8099,0.8098,0.8098,0.8098,0.7844,0.7863,0.7881,0.7905,0.792,0.7937,0.7956,0.7967,0.799,0.8017,0.802,0.805,0.807,0.8105,0.8119,0.8143,0.8138,0.8147,0.8149,0.8152,0.8154,0.8098,0.8147,0.8147,0.8147,0.8147,0.8147,0,0.789,0.7902,0.7924,0.795,0.7969,0.7966,0.7987,0.8004,0.8029,0.8048,0.8069,0.81,0.8127,0.8143,0.817,0.8186,0.8187,0.8193,0.8192,0.8196,0.8156,0.8149,0.8191,0.8191,0.8191,0.8191,0.8191,0.8191,0.7917,0.7948,0.7954,0.7993,0.8005,0.8033,0.8045,0.8062,0.8077,0.8112,0.8133,0.8143,0.8162,0.819,0.8214,0.8218,0.8229,0.8235,0.824,0.8203,0.8198,0.8194,0.8187,0.8237,0.8237,0.8278,0.8278,0.8278]},{"header":{"parameterUnit":"m.s-1","parameterCategory":1,"la1":30.2991,"la2":30.254,"lo1":-89.0895,"lo2":-89.0444,"dy":0.0017,"dx":0.0017,"nx":28,"ny":28,"refTime":"2024-02-27T09:00:00:Z","depth":0,"parameterNumber":3,"parameterNumberName":"V-component_of_WINDS"},"data":[0,0,0,0,0,0,0,0,0,0,0,0,0,0,0,0,0,0,0,0,0,0,0,0,0,0,0,0,0,0,0,0,0,0,0,0,0,0,0,0,0,0,0,0,0,0,0,0,0,0,0,0,0,0,0,0,0,0,4.8212,4.8213,0,4.8308,4.8309,4.831,4.8368,4.8368,4.8369,4.8369,4.8466,4.8468,4.8471,0,0,0,0,0,0,0,0,0,0,0,0,0,4.8082,4.8084,4.8212,4.8213,4.8214,4.8308,4.8309,4.831,4.8368,4.8368,4.8369,4.8369,4.8465,4.8468,4.8471,0,0,0,0,0,0,0,0,0,0,0,0,0,4.8154,4.8084,4.8212,4.8254,4.8259,4.8307,4.8309,4.8311,4.8368,4.8368,4.8369,4.8369,4.8465,4.8468,4.8471,4.8484,0,0,4.8482,4.8484,0,0,0,0,0,0,0,0,4.815,4.8159,4.8247,4.8252,4.8257,4.8326,4.8299,4.8369,4.8368,4.8327,4.8369,4.8369,4.8419,4.8427,4.8444,4.8489,4.8493,4.8482,4.8484,4.8486,4.8487,0,0,0,0,0,0,0,4.8145,4.8155,4.825,4.8248,4.8254,4.827,4.828,4.8312,4.8369,4.833,4.8335,4.8345,4.8422,4.844,4.8446,4.8494,4.8482,4.8485,4.8487,4.8489,4.8561,4.8561,0,0,0,0,0,0,4.8133,4.815,4.8247,4.8253,4.8203,4.8272,4.8284,4.8304,4.8369,4.838,4.8345,4.8348,4.8434,4.8442,4.845,4.8473,4.8486,4.8489,4.8491,4.8561,4.8561,4.8561,0,0,0,0,0,0,4.813,4.8141,4.8243,4.8203,4.8217,4.8273,4.8296,4.8305,4.8323,4.838,4.8391,4.8352,4.8435,4.8445,4.8477,4.8477,4.8491,4.8494,4.8561,4.8561,4.8561,4.8516,0,0,0,0,0,0,4.8126,4.8139,4.8144,4.8202,4.8219,4.8267,4.8295,4.8307,4.8329,4.8334,4.839,4.84,4.8436,4.8471,4.848,4.8482,4.8497,4.8561,4.8561,4.8561,4.8518,4.8514,4.8512,0,0,0,0,0,4.8121,4.8126,4.8144,4.8155,4.8226,4.8267,4.8276,4.8317,4.8329,4.8335,4.8372,4.8398,4.8475,4.8474,4.8484,4.8487,4.8562,4.8561,4.8561,4.8519,4.8515,4.8512,0,0,0,0,0,0,4.8064,4.8134,4.8154,4.8179,4.8217,4.8276,4.8285,4.8311,4.8346,4.8349,4.8398,4.8411,4.8438,4.8466,4.8463,4.8506,4.8522,4.8523,4.8487,4.8483,4.848,4.8473,4.85,0,0,0,0,0,4.8055,4.8082,4.8142,4.8158,4.8176,4.8227,4.8246,4.8276,4.8316,4.8332,4.8372,4.8411,4.8445,4.8465,4.8499,4.8523,4.8537,4.853,4.8527,4.8524,4.8525,4.8544,4.8542,4.8559,4.8559,4.8559,0,0,4.8035,4.8077,4.8091,4.8148,4.818,4.8209,4.824,4.8267,4.829,4.8337,4.837,4.84,4.8447,4.8476,4.8491,4.85,4.8524,4.8524,4.8521,4.8524,4.8543,4.8542,4.854,4.8559,4.8559,4.8559,0,0,4.8015,4.8048,4.8067,4.81,4.815,4.8185,4.8189,4.8246,4.8269,4.8303,4.834,4.8368,4.8423,4.8457,4.8481,4.8478,4.8504,4.8488,4.8471,4.8489,4.8487,4.8486,4.8488,4.8488,4.8488,4.8488,4.8488,0,4.7984,4.8028,4.8073,4.81,4.8126,4.8171,4.8192,4.8222,4.828,4.8297,4.8307,4.8381,4.8415,4.8455,4.8454,4.8471,4.848,4.8481,4.8484,4.8483,4.8483,4.8486,4.8486,4.8486,4.8486,4.8487,4.8487,0,4.7989,4.802,4.8029,4.8086,4.8113,4.8136,4.8186,4.8208,4.8236,4.827,4.8307,4.8351,4.8396,4.8407,4.8433,4.8452,4.8456,4.8474,4.8491,4.8479,4.8482,4.8483,4.8483,4.8484,4.8484,4.8485,0,0,4.7933,4.8018,4.8021,4.8049,4.811,4.8135,4.8162,4.8207,4.8226,4.8266,4.8291,4.834,4.8359,4.8386,4.8417,4.8432,4.8432,4.8449,4.8451,4.8446,4.8458,4.8445,4.8445,4.845,4.845,4.845,4.8455,0,4.7923,4.7974,4.8018,4.8054,4.8084,4.813,4.8154,4.8195,4.8229,4.826,4.8298,4.8333,4.8353,4.8371,4.8388,4.8428,4.8435,4.8428,4.8476,4.8477,4.8463,4.8446,4.8432,4.8434,4.8456,4.8456,4.8456,0,4.7917,4.7957,4.7996,4.8058,4.8072,4.8093,4.8141,4.817,4.8218,4.8242,4.8275,4.8309,4.8342,4.8356,4.8404,4.8399,4.8421,4.8444,4.8445,4.8452,4.8466,4.8454,4.8435,4.8436,4.8458,4.8458,4.8458,0,4.7876,4.7939,4.7972,4.7995,4.8066,4.8081,4.8111,4.816,4.8186,4.8228,4.8246,4.8291,4.8315,4.835,4.8396,4.8401,4.844,4.8457,4.8462,4.8461,4.8468,4.8467,4.8454,4.8481,4.8481,4.8481,4.8481,0,4.7861,4.7883,4.7955,4.7975,4.8003,4.8054,4.8081,4.8116,4.816,4.8189,4.8231,4.8257,4.8315,4.835,4.8386,4.8422,4.8432,4.8454,4.8463,4.845,4.8448,4.8466,4.8468,4.8481,4.8481,4.8481,4.8481,0,4.7819,4.7867,4.7907,4.7973,4.799,4.8008,4.8065,4.8088,4.8125,4.8162,4.8174,4.8233,4.8275,4.8325,4.8383,4.8408,4.8442,4.8455,4.8426,4.8431,4.8435,4.8434,4.8434,4.8437,4.8459,4.8459,4.8459,0,4.7806,4.7826,4.7895,4.7918,4.7948,4.7984,4.8012,4.8064,4.8091,4.815,4.8166,4.8212,4.8252,4.8319,4.8368,4.8414,4.8429,4.8426,4.8436,4.8425,4.8432,4.8431,4.8434,4.8423,4.8423,4.8422,4.8422,0,4.778,4.7805,4.7843,4.7891,4.7923,4.7963,4.8005,4.8022,4.8083,4.8112,4.8157,4.8188,4.825,4.8296,4.8349,4.8382,4.8413,4.8419,4.8423,4.841,4.8394,4.8405,4.8419,4.8418,4.8418,4.8419,4.8419,4.8419,4.7754,4.7775,4.7828,4.7871,4.7908,4.7947,4.7973,4.8015,4.8054,4.8108,4.8137,4.8183,4.8235,4.8309,4.8342,4.8379,4.8389,4.8394,4.8396,4.8397,4.8394,4.8387,4.8389,4.8389,4.8389,4.8389,4.8389,0,4.7733,4.777,4.7809,4.7867,4.7901,4.7928,4.7977,4.8004,4.8044,4.809,4.813,4.8183,4.823,4.8284,4.8334,4.8354,4.837,4.8365,4.8365,4.8373,4.8381,4.8374,4.8352,4.8352,4.8352,4.8352,4.8352,4.8352,4.7725,4.7763,4.7794,4.7852,4.7889,4.7934,4.7961,4.7998,4.8035,4.8094,4.8133,4.8168,4.8219,4.8274,4.8318,4.8333,4.8351,4.8343,4.8362,4.8369,4.8372,4.8375,4.8368,4.8345,4.8345,4.8351,4.8351,4.8351]}]]